Flag for Japan Weather past 2 weeks in Yokosuka, Japan

Now
57 °F

Partly sunny.


Feels Like: 55 °F
Forecast: 38 / 45 °F
Wind: 12 mph from South

Location: Tokyo International Airport

Current Time: Jan 27, 2015 at 3:10:51 PM

Latest Report: Jan 27, 2015 at 2:30 PM


Visibility: N/A

Pressure: 29.71 "Hg

Humidity: 67%

Dew point: 46 °F

Location of YokosukaLocation

Historic Weather in Yokosuka — Graph

°F

Yokosuka temperature yesterday

Maximum temperature yesterday: 57 °F (at 7:30 PM)
Minimum temperature yesterday: 45 °F (at 2:30 AM)
Average temperature yesterday: 50 °F

Past Weeks' High & Low Weather Summary

 TemperatureHumidityPressure
High57 °F (Jan 26, 7:30 PM)94% (Jan 16, 11:30 PM)30.42 "Hg (Jan 16, 11:30 PM)
Low34 °F (Jan 19, 5:00 AM)21% (Jan 18, 11:00 AM)29.50 "Hg (Jan 23, 1:00 AM)
Average45 °F59%30.04 "Hg
* Reported Jan 12 2:00 PM — Jan 27 2:00 PM, Yokosuka, Weather by CustomWeather, © 2014

Note: Actual official high and low records may vary slightly from our data, if they occured in-between our weather recording intervals... More about our weather records

Advertising

Yokosuka weather history for previous 24 hours

 ConditionsComfort  
Time TempWeatherWind HumidityBarometerVisibility
2:00 PM
Jan 27
57 °FPartly sunny.10 mph63%29.71 "HgN/A
1:30 PM55 °FPartly sunny.10 mph72%29.68 "HgN/A
1:00 PM55 °FPartly sunny.12 mph72%29.71 "HgN/A
12:30 PM55 °FScattered clouds.10 mph72%29.71 "HgN/A
12:00 PM54 °FPassing clouds.3 mph72%29.74 "HgN/A
11:30 AM54 °FPassing clouds.3 mph72%29.74 "HgN/A
11:00 AM52 °FPassing clouds.5 mph77%29.77 "HgN/A
10:30 AM52 °FPassing clouds.7 mph77%29.77 "Hg6 mi
10:00 AM50 °FPassing clouds.10 mph82%29.77 "Hg5 mi
9:30 AM50 °FPartly sunny.12 mph82%29.77 "Hg4 mi
9:00 AM48 °FFog.13 mph87%29.77 "Hg4 mi
8:30 AM46 °FSprinkles. Fog.12 mph93%29.80 "Hg3 mi
8:00 AM46 °FSprinkles. Fog.9 mph93%29.80 "Hg3 mi
7:30 AM46 °FSprinkles. Fog.10 mph93%29.80 "Hg3 mi
7:00 AM46 °FSprinkles. Fog.9 mph93%29.80 "Hg2 mi
6:30 AM46 °FRain showers. Fog.17 mph93%29.80 "Hg2 mi
6:00 AM46 °FRain showers. Fog.16 mph87%29.80 "Hg2 mi
5:46 AM46 °FRain showers. Fog.17 mph93%29.80 "Hg2 mi
5:30 AM46 °FRain showers. Fog.15 mph93%29.83 "Hg2 mi
5:00 AM46 °FSprinkles. Fog.15 mph93%29.83 "Hg2 mi
4:30 AM46 °FRain showers. Fog.13 mph93%29.86 "Hg2 mi
4:00 AM46 °FSprinkles. Fog.12 mph93%29.86 "Hg2 mi
3:30 AM46 °FRain showers. Fog.13 mph93%29.89 "Hg2 mi
3:00 AM46 °FSprinkles. Fog.12 mph93%29.89 "Hg2 mi
2:30 AM48 °FRain showers. Fog.16 mph94%29.92 "Hg3 mi
2:00 AM48 °FSprinkles. Fog.10 mph87%29.92 "Hg3 mi
1:30 AM48 °FRain showers. Fog.8 mph87%29.95 "Hg3 mi
1:00 AM48 °FSprinkles. Fog.9 mph87%29.95 "Hg3 mi
12:30 AM48 °FLight rain. Passing clouds.9 mph87%29.95 "Hg4 mi
12:00 AM50 °FLight rain. Passing clouds.9 mph82%29.98 "Hg5 mi
11:30 PM
Jan 26
50 °FLight rain. Passing clouds.9 mph82%29.98 "Hg5 mi
11:00 PM50 °FLight rain. Passing clouds.8 mph88%30.01 "Hg5 mi
10:30 PM52 °FLight rain. Passing clouds.6 mph82%30.01 "Hg5 mi
10:00 PM52 °FLight rain. Passing clouds.3 mph88%30.01 "HgN/A
9:30 PM54 °FLight rain. Passing clouds.3 mph77%30.01 "HgN/A
9:00 PM54 °FLight rain. Passing clouds.2 mph82%30.04 "HgN/A
8:30 PM55 °FLight rain. Passing clouds.5 mph77%30.04 "HgN/A
8:00 PM55 °FScattered showers. Passing clouds.10 mph77%30.04 "HgN/A
7:30 PM57 °FPassing clouds.12 mph72%30.07 "HgN/A
7:00 PM55 °FPartly cloudy.13 mph72%30.07 "HgN/A
6:30 PM55 °FPassing clouds.13 mph72%30.07 "HgN/A
6:00 PM55 °FClear.13 mph72%30.07 "Hg10 mi
5:30 PM55 °FPassing clouds.12 mph72%30.07 "HgN/A
5:00 PM55 °FPassing clouds.3 mph67%30.07 "HgN/A
4:30 PM54 °FPassing clouds.6 mph77%30.07 "HgN/A
4:00 PM54 °FSunny.10 mph77%30.07 "Hg10 mi
3:30 PM54 °FPartly sunny.14 mph72%30.07 "HgN/A
3:00 PM54 °FPartly sunny.13 mph72%30.07 "HgN/A
Weather by CustomWeather, © 2014

See weather overviewHow to use our weather pages